Brooksville, FL

4:44 PM EDT on August 19, 2017 (GMT -0400)
Hernando County

Weather History for KBKV - November, 2013

Change the Weather History Date:

Thursday, November 21, 2013

  Actual Average Record
Temperature  
Mean Temperature 73 °F -  
Max Temperature 80 °F 74 °F 82 °F (1997)
Min Temperature 66 °F 49 °F 30 °F (2016)
Cooling Degree Days 8    
Growing Degree Days 23 (Base 50)    
Moisture  
Dew Point 68 °F    
Average Humidity 86    
Maximum Humidity 97    
Minimum Humidity 67    
Precipitation  
Precipitation 0.05 in - - ()
Sea Level Pressure  
Sea Level Pressure 30.17 in    
Wind  
Wind Speed 9 mph (ENE)    
Max Wind Speed 16 mph    
Max Gust Speed 25 mph    
Visibility 10 miles    
Events Rain    
Averages and records for this station are not official NWS values.
T = Trace of Precipitation, MM = Missing Value Source: NWS Daily Summary

Daily Weather History Graph

Daily Weather History Graph

Search for Another Location

Airport or City:

Trip Planner

Search our weather history database for the weather conditions in past years. The results will help you decide how hot, cold, wet, or windy it might be!

Date:

Astronomy

Nov. 21, 2013 Rise Set
Actual Time 6:57 AM EST 5:34 PM EST
Civil Twilight 6:31 AM EST 5:59 PM EST
Nautical Twilight 6:03 AM EST 6:28 PM EST
Astronomical Twilight 5:34 AM EST 6:56 PM EST
Moon 9:07 PM EST (11/21) 10:04 AM EST (11/21)
Length of Visible Light 11h 27m
Length of Day
10h 37m
Waning Gibbous, 85% of the Moon is Illuminated
Nov 21
Waning Gibbous
Nov 25
Last Quarter
Dec 2
New
Dec 9
First Quarter
Dec 17
Full

Hourly Weather History & Observations

Time (EST) Temp. Heat Index Dew Point Humidity Pressure Visibility Wind Dir Wind Speed Gust Speed Precip Events Conditions
12:53 AM 68.0 °F - 66.0 °F 93% 30.13 in 10.0 mi NE 4.6 mph - N/A   Partly Cloudy
1:53 AM 66.9 °F - 66.0 °F 97% 30.13 in 10.0 mi NE 6.9 mph - N/A   Clear
2:53 AM 66.9 °F - 64.9 °F 93% 30.13 in 10.0 mi NE 6.9 mph - N/A   Partly Cloudy
3:53 AM 66.9 °F - 64.9 °F 93% 30.13 in 10.0 mi NE 6.9 mph - N/A   Overcast
4:53 AM 66.9 °F - 64.9 °F 93% 30.14 in 10.0 mi NE 8.1 mph - N/A   Overcast
5:53 AM 66.0 °F - 64.9 °F 96% 30.15 in 10.0 mi NE 5.8 mph - N/A   Partly Cloudy
6:53 AM 66.0 °F - 64.9 °F 96% 30.17 in 10.0 mi NE 8.1 mph - N/A   Partly Cloudy
7:53 AM 66.9 °F - 64.9 °F 93% 30.18 in 10.0 mi NE 8.1 mph - N/A   Clear
8:53 AM 71.1 °F - 66.9 °F 87% 30.19 in 10.0 mi ENE 12.7 mph - N/A   Clear
9:53 AM 73.9 °F - 68.0 °F 82% 30.20 in 10.0 mi NE 12.7 mph - N/A   Mostly Cloudy
10:53 AM 77.0 °F - 69.1 °F 76% 30.19 in 10.0 mi ENE 11.5 mph - N/A   Mostly Cloudy
11:50 AM 80.6 °F 83.9 °F 69.8 °F 70% 30.17 in 10.0 mi NE 12.7 mph - N/A   Overcast
11:53 AM 79.0 °F - 69.1 °F 72% 30.17 in 10.0 mi ENE 13.8 mph - N/A   Overcast
12:02 PM 80.1 °F 82.9 °F 69.1 °F 69% 30.17 in 10.0 mi ENE 11.5 mph - N/A   Mostly Cloudy
12:53 PM 79.0 °F - 69.1 °F 72% 30.16 in 10.0 mi NE 11.5 mph - N/A   Mostly Cloudy
1:21 PM 80.1 °F 82.7 °F 68.0 °F 67% 30.15 in 10.0 mi ENE 13.8 mph 18.4 mph N/A   Overcast
1:28 PM 79.0 °F - 68.0 °F 69% 30.15 in 10.0 mi ENE 13.8 mph - N/A   Overcast
1:53 PM 79.0 °F - 68.0 °F 69% 30.14 in 10.0 mi ENE 13.8 mph - N/A   Overcast
2:53 PM 78.1 °F - 69.1 °F 74% 30.13 in 10.0 mi NE 15.0 mph - N/A   Scattered Clouds
3:53 PM 77.0 °F - 66.9 °F 71% 30.14 in 10.0 mi ENE 13.8 mph 25.3 mph N/A   Mostly Cloudy
4:53 PM 75.0 °F - 68.0 °F 79% 30.16 in 10.0 mi ENE 10.4 mph - N/A   Mostly Cloudy
5:10 PM 73.9 °F - 69.1 °F 85% 30.17 in 10.0 mi ENE 16.1 mph - N/A   Overcast
5:43 PM 72.0 °F - 69.1 °F 91% 30.18 in 10.0 mi ENE 10.4 mph - 0.01 in   Overcast
5:53 PM 71.1 °F - 70.0 °F 96% 30.18 in 5.0 mi ENE 9.2 mph - 0.01 in Rain Light Rain
6:22 PM 71.1 °F - 70.0 °F 96% 30.19 in 5.0 mi ENE 15.0 mph - 0.02 in Rain Light Rain
6:53 PM 70.0 °F - 69.1 °F 97% 30.20 in 8.0 mi ENE 13.8 mph - 0.04 in Rain Light Rain
6:58 PM 70.0 °F - 69.1 °F 97% 30.20 in 10.0 mi ENE 12.7 mph - 0.00 in Rain Light Rain
7:53 PM 70.0 °F - 69.1 °F 97% 30.20 in 10.0 mi ENE 11.5 mph - 0.00 in   Overcast
8:18 PM 70.0 °F - 69.1 °F 97% 30.21 in 10.0 mi ENE 9.2 mph - N/A   Overcast
8:53 PM 70.0 °F - 68.0 °F 93% 30.21 in 10.0 mi ENE 11.5 mph - N/A   Mostly Cloudy
9:53 PM 69.1 °F - 68.0 °F 96% 30.22 in 10.0 mi ENE 8.1 mph - N/A   Overcast
10:53 PM 69.1 °F - 68.0 °F 96% 30.21 in 10.0 mi ENE 6.9 mph - N/A   Overcast
11:53 PM 69.1 °F - 68.0 °F 96% 30.21 in 10.0 mi NE 5.8 mph - N/A   Overcast